• în România
  • Lista ţărilor
  • Pe 7 zile
  • Temperatura apei
  • Hartă satelitară
  • Meteo pe hartă
  • Widget-uri
  • user-avatar
    Intrare

    Meteo pe oră la Huhtervu

    Astăzi, 18 Octombrie, Joi

    Timp Temperatura Precipitaţii Vânt Presiune Umiditate
    00:00 +9°C° 0 mm 5 m/s 757 mmHg 93%
    01:00 +9°C° 0 mm 5 m/s 757 mmHg 93%
    02:00 +10°C° 0 mm 5 m/s 757 mmHg 93%
    03:00 +10°C° 0 mm 5 m/s 756 mmHg 93%
    04:00 +11°C° 0 mm 4 m/s 756 mmHg 94%
    05:00 +11°C° 0 mm 4 m/s 756 mmHg 94%
    06:00 +11°C° 0.1 mm 4 m/s 756 mmHg 94%
    07:00 +11°C° 0.1 mm 4 m/s 756 mmHg 94%
    08:00 +11°C° 0.1 mm 4 m/s 755 mmHg 94%
    09:00 +12°C° 0.1 mm 4 m/s 755 mmHg 92%
    10:00 +12°C° 0.1 mm 5 m/s 755 mmHg 90%
    11:00 +13°C° 0.1 mm 5 m/s 755 mmHg 87%
    12:00 +13°C° 0.1 mm 5 m/s 754 mmHg 87%
    13:00 +13°C° 0.1 mm 5 m/s 754 mmHg 86%
    14:00 +13°C° 0.1 mm 5 m/s 754 mmHg 86%
    15:00 +13°C° 0.6 mm 5 m/s 753 mmHg 87%
    16:00 +12°C° 0.6 mm 5 m/s 753 mmHg 89%
    17:00 +12°C° 0.6 mm 5 m/s 753 mmHg 91%
    18:00 +12°C° 0.7 mm 5 m/s 753 mmHg 90%
    19:00 +10°C° 0.7 mm 5 m/s 753 mmHg 89%
    20:00 +10°C° 0.7 mm 5 m/s 753 mmHg 89%
    21:00 +9°C° 0.1 mm 6 m/s 753 mmHg 86%
    22:00 +9°C° 0.1 mm 6 m/s 753 mmHg 83%
    23:00 +8°C° 0.1 mm 6 m/s 754 mmHg 80%

    Mâine, 19 Octombrie, Vineri

    Timp Temperatura Precipitaţii Vânt Presiune Umiditate
    00:00 +7°C° 0 mm 6 m/s 754 mmHg 81%
    01:00 +6°C° 0 mm 5 m/s 754 mmHg 81%
    02:00 +6°C° 0 mm 5 m/s 755 mmHg 82%
    03:00 +5°C° 0 mm 5 m/s 755 mmHg 82%
    04:00 +5°C° 0 mm 5 m/s 755 mmHg 83%
    05:00 +5°C° 0 mm 5 m/s 755 mmHg 83%
    06:00 +5°C° 0 mm 5 m/s 755 mmHg 83%
    07:00 +5°C° 0 mm 5 m/s 756 mmHg 83%
    08:00 +4°C° 0 mm 6 m/s 756 mmHg 83%
    09:00 +5°C° 0 mm 6 m/s 756 mmHg 80%
    10:00 +5°C° 0 mm 6 m/s 756 mmHg 78%
    11:00 +7°C° 0 mm 6 m/s 756 mmHg 75%
    12:00 +7°C° 0 mm 6 m/s 756 mmHg 74%
    13:00 +7°C° 0 mm 6 m/s 756 mmHg 73%
    14:00 +8°C° 0 mm 6 m/s 756 mmHg 72%
    15:00 +7°C° 0 mm 6 m/s 756 mmHg 74%
    16:00 +7°C° 0 mm 6 m/s 756 mmHg 75%
    17:00 +7°C° 0 mm 6 m/s 756 mmHg 76%
    18:00 +7°C° 0 mm 6 m/s 756 mmHg 77%
    19:00 +6°C° 0 mm 5 m/s 757 mmHg 78%
    20:00 +6°C° 0 mm 5 m/s 757 mmHg 79%
    21:00 +6°C° 0 mm 5 m/s 757 mmHg 81%
    22:00 +5°C° 0 mm 5 m/s 757 mmHg 83%
    23:00 +5°C° 0 mm 4 m/s 757 mmHg 84%

    Poimâine, 20 Octombrie, Sâmbătă

    Timp Temperatura Precipitaţii Vânt Presiune Umiditate
    00:00 +5°C° 0 mm 4 m/s 757 mmHg 85%
    01:00 +5°C° 0 mm 4 m/s 757 mmHg 86%
    02:00 +4°C° 0 mm 4 m/s 758 mmHg 88%
    03:00 +4°C° 0 mm 4 m/s 758 mmHg 89%
    04:00 +4°C° 0 mm 4 m/s 758 mmHg 89%
    05:00 +4°C° 0 mm 3 m/s 758 mmHg 90%
    06:00 +4°C° 0 mm 3 m/s 758 mmHg 90%
    07:00 +4°C° 0 mm 3 m/s 758 mmHg 90%
    08:00 +4°C° 0 mm 3 m/s 758 mmHg 89%
    09:00 +5°C° 0 mm 3 m/s 758 mmHg 87%
    10:00 +5°C° 0 mm 3 m/s 758 mmHg 85%
    11:00 +7°C° 0 mm 2 m/s 758 mmHg 83%
    12:00 +7°C° 0 mm 2 m/s 758 mmHg 82%
    13:00 +7°C° 0 mm 2 m/s 758 mmHg 81%
    14:00 +8°C° 0 mm 2 m/s 758 mmHg 80%
    15:00 +7°C° 0.1 mm 2 m/s 758 mmHg 82%
    16:00 +7°C° 0.1 mm 2 m/s 758 mmHg 84%
    17:00 +8°C° 0.1 mm 1 m/s 758 mmHg 87%
    18:00 +7°C° 0 mm 1 m/s 758 mmHg 88%
    19:00 +7°C° 0 mm 1 m/s 758 mmHg 90%
    20:00 +7°C° 0 mm 1 m/s 758 mmHg 91%
    21:00 +6°C° 0 mm 1 m/s 758 mmHg 92%
    22:00 +6°C° 0 mm 1 m/s 758 mmHg 92%
    23:00 +6°C° 0 mm 1 m/s 758 mmHg 93%

    21 Octombrie, Duminică

    Timp Temperatura Precipitaţii Vânt Presiune Umiditate
    00:00 +6°C° 0 mm 1 m/s 758 mmHg 93%
    01:00 +5°C° 0 mm 1 m/s 758 mmHg 94%
    02:00 +5°C° 0 mm 1 m/s 759 mmHg 94%
    03:00 +5°C° 0 mm 1 m/s 759 mmHg 94%
    04:00 +5°C° 0 mm 1 m/s 759 mmHg 94%
    05:00 +5°C° 0 mm 1 m/s 759 mmHg 94%
    06:00 +5°C° 0 mm 1 m/s 759 mmHg 94%
    07:00 +5°C° 0 mm 1 m/s 759 mmHg 94%
    08:00 +5°C° 0 mm 1 m/s 759 mmHg 94%
    09:00 +5°C° 0 mm 2 m/s 759 mmHg 89%
    10:00 +5°C° 0 mm 3 m/s 759 mmHg 84%
    11:00 +7°C° 0 mm 3 m/s 759 mmHg 79%
    12:00 +6°C° 0 mm 4 m/s 759 mmHg 78%
    13:00 +7°C° 0 mm 4 m/s 758 mmHg 77%
    14:00 +7°C° 0 mm 5 m/s 758 mmHg 76%
    15:00 +7°C° 0 mm 5 m/s 758 mmHg 77%
    16:00 +7°C° 0 mm 5 m/s 757 mmHg 77%
    17:00 +5°C° 0 mm 6 m/s 757 mmHg 78%
    18:00 +5°C° 0 mm 6 m/s 757 mmHg 79%
    19:00 +5°C° 0 mm 6 m/s 756 mmHg 80%
    20:00 +5°C° 0 mm 6 m/s 755 mmHg 82%
    21:00 +5°C° 0.7 mm 6 m/s 755 mmHg 84%
    22:00 +6°C° 0.7 mm 7 m/s 754 mmHg 85%
    23:00 +6°C° 0.7 mm 7 m/s 753 mmHg 87%

    22 Octombrie, Luni

    Timp Temperatura Precipitaţii Vânt Presiune Umiditate
    00:00 +6°C° 1.4 mm 8 m/s 751 mmHg 88%
    01:00 +6°C° 1.4 mm 8 m/s 750 mmHg 88%
    02:00 +7°C° 1.4 mm 9 m/s 748 mmHg 89%
    03:00 +8°C° 1.3 mm 9 m/s 747 mmHg 88%
    04:00 +9°C° 1.3 mm 10 m/s 745 mmHg 88%
    05:00 +11°C° 1.3 mm 10 m/s 743 mmHg 87%
    06:00 +11°C° 0.8 mm 11 m/s 742 mmHg 86%
    07:00 +11°C° 0.8 mm 11 m/s 741 mmHg 85%
    08:00 +12°C° 0.8 mm 11 m/s 739 mmHg 84%
    09:00 +9°C° 0.6 mm 11 m/s 740 mmHg 81%
    10:00 +8°C° 0.6 mm 11 m/s 740 mmHg 78%
    11:00 +7°C° 0.6 mm 11 m/s 740 mmHg 75%
    12:00 +7°C° 0.1 mm 10 m/s 741 mmHg 72%
    13:00 +6°C° 0.1 mm 10 m/s 742 mmHg 69%
    14:00 +6°C° 0.1 mm 9 m/s 743 mmHg 67%
    15:00 +6°C° 0.2 mm 9 m/s 744 mmHg 70%
    16:00 +5°C° 0.2 mm 8 m/s 744 mmHg 73%
    17:00 +5°C° 0.2 mm 7 m/s 745 mmHg 76%
    18:00 +4°C° 0.3 mm 8 m/s 745 mmHg 74%
    19:00 +4°C° 0.3 mm 8 m/s 745 mmHg 71%
    20:00 +2°C° 0.3 mm 8 m/s 745 mmHg 69%
    21:00 +2°C° 0 mm 8 m/s 745 mmHg 70%
    22:00 +3°C° 0 mm 7 m/s 746 mmHg 72%
    23:00 +3°C° 0 mm 7 m/s 746 mmHg 74%

    23 Octombrie, Marţi

    Timp Temperatura Precipitaţii Vânt Presiune Umiditate
    00:00 +3°C° 0 mm 7 m/s 746 mmHg 74%
    01:00 +4°C° 0 mm 7 m/s 746 mmHg 74%
    02:00 +4°C° 0 mm 8 m/s 746 mmHg 75%
    03:00 +3°C° 0 mm 7 m/s 746 mmHg 76%
    04:00 +3°C° 0 mm 7 m/s 746 mmHg 77%
    05:00 +3°C° 0 mm 6 m/s 746 mmHg 79%
    06:00 +2°C° 0 mm 6 m/s 746 mmHg 80%
    07:00 +2°C° 0 mm 6 m/s 746 mmHg 81%
    08:00 +2°C° 0 mm 5 m/s 746 mmHg 82%
    09:00 +3°C° 0 mm 5 m/s 746 mmHg 80%
    10:00 +3°C° 0 mm 5 m/s 746 mmHg 77%
    11:00 +5°C° 0 mm 5 m/s 746 mmHg 74%
    12:00 +5°C° 0 mm 5 m/s 746 mmHg 73%
    13:00 +5°C° 0 mm 5 m/s 746 mmHg 71%
    14:00 +5°C° 0 mm 4 m/s 746 mmHg 70%
    15:00 +5°C° 0 mm 4 m/s 746 mmHg 71%
    16:00 +4°C° 0 mm 4 m/s 746 mmHg 72%
    17:00 +4°C° 0 mm 4 m/s 746 mmHg 74%
    18:00 +4°C° 0 mm 4 m/s 746 mmHg 76%
    19:00 +3°C° 0 mm 4 m/s 746 mmHg 78%
    20:00 +3°C° 0 mm 3 m/s 746 mmHg 81%
    21:00 +2°C° 0 mm 3 m/s 745 mmHg 82%
    22:00 +2°C° 0 mm 3 m/s 745 mmHg 84%
    23:00 +2°C° 0 mm 3 m/s 745 mmHg 85%
    Arată mai mult